Flag for Romania Weather past 2 weeks in Târgu Mureş, Romania

Now
41 °F

Fog.


Feels Like: 38 °F
Forecast: 51 / 62 °F
Wind: 5 mph from East

Location: Tirgu Mures Airport

Current Time: Oct 20, 2014 at 11:38:20 AM

Latest Report: Oct 20, 2014 at 11:00 AM


Visibility: 0 mi

Pressure: 30.18 "Hg

Humidity: 100%

Dew point: 41 °F

Location of Târgu MureşLocation

Historic Weather in Târgu Mureş — Graph

°F

Târgu Mureş temperature yesterday

Maximum temperature yesterday: 59 °F (at 4:30 PM)
Minimum temperature yesterday: 39 °F (at 4:00 AM)
Average temperature yesterday: 47 °F

Past Weeks' High & Low Weather Summary

 TemperatureHumidityPressure
High79 °F (Oct 11, 5:00 PM)100% (Oct 6, 5:30 AM)30.42 "Hg (Oct 6, 5:30 AM)
Low37 °F (Oct 20, 3:00 AM)33% (Oct 6, 4:30 PM)29.80 "Hg (Oct 15, 5:00 PM)
Average57 °F77%30.09 "Hg
* Reported Oct 5 10:00 AM — Oct 20 10:30 AM, Târgu Mureş, Weather by CustomWeather, © 2014

Note: Actual official high and low records may vary slightly from our data, if they occured in-between our weather recording intervals... More about our weather records

Advertising

Târgu Mureş weather history for previous 24 hours

 ConditionsComfort  
Time TempWeatherWind HumidityBarometerVisibility
10:30 AM
Oct 20
41 °FFog.5 mph100%30.18 "Hg0 mi
10:00 AM39 °FFog.5 mph100%30.18 "Hg0 mi
9:30 AM39 °FFog.2 mph100%30.18 "Hg0 mi
9:00 AM37 °FFog.2 mph100%30.18 "Hg0 mi
8:30 AM37 °FFog.5 mph100%30.21 "Hg0 mi
8:00 AM39 °FFog.5 mph100%30.18 "Hg0 mi
6:00 AM37 °FFog.2 mph100%30.21 "Hg0 mi
5:30 AM37 °FFog.2 mph100%30.21 "Hg0 mi
5:00 AM37 °FFog.2 mph100%30.21 "Hg1 mi
4:00 AM37 °FFog.5 mph100%30.21 "Hg1 mi
3:00 AM37 °FFog.5 mph93%30.24 "Hg1 mi
2:00 AM41 °FFog.7 mph100%30.27 "Hg2 mi
1:00 AM39 °FFog.7 mph100%30.27 "Hg3 mi
12:00 AM41 °FClear.5 mph100%30.27 "Hg4 mi
11:00 PM
Oct 19
41 °FClear.5 mph100%30.30 "Hg4 mi
10:00 PM41 °FClear.2 mph100%30.30 "Hg5 mi
9:00 PM43 °FClear.2 mph100%30.30 "Hg10 mi
8:30 PM45 °FClear.2 mph93%30.30 "Hg10 mi
8:00 PM48 °FClear.5 mph87%30.30 "Hg10 mi
7:30 PM48 °FClear.No wind82%30.30 "Hg10 mi
7:00 PM50 °FSunny.No wind82%30.30 "Hg10 mi
6:30 PM54 °FSunny.No wind72%30.30 "Hg10 mi
6:00 PM57 °FSunny.2 mph67%30.30 "Hg10 mi
5:30 PM59 °FSunny.2 mph63%30.33 "Hg10 mi
5:00 PM59 °FSunny.2 mph68%30.33 "Hg10 mi
4:30 PM59 °FSunny.2 mph68%30.33 "Hg10 mi
4:00 PM57 °FPassing clouds.No wind72%30.36 "HgN/A
3:30 PM57 °FPassing clouds.2 mph72%30.36 "HgN/A
3:00 PM54 °FPassing clouds.2 mph82%30.39 "HgN/A
2:30 PM54 °FBroken clouds.2 mph82%30.39 "Hg6 mi
2:00 PM50 °FBroken clouds.2 mph94%30.39 "Hg6 mi
1:30 PM50 °FPartly sunny.2 mph94%30.42 "Hg4 mi
1:00 PM48 °FPartly sunny.2 mph100%30.42 "Hg4 mi
12:30 PM48 °FFog.2 mph94%30.42 "Hg3 mi
12:00 PM48 °FFog.2 mph94%30.42 "Hg2 mi
11:30 AM46 °FFog.2 mph100%30.42 "Hg1 mi
11:00 AM46 °FFog.2 mph100%30.42 "Hg1 mi
Weather by CustomWeather, © 2014

See weather overviewHow to use our weather pages